Tracking 35331 objects as of 16-Sep-2026
HD Live streaming from Space Station
objects crossing your sky now

SL-6 R/B(1)


SL-6 R/B(1) is no longer on orbit


NORAD ID: 11845
Int'l Code: 1980-050C
Launch date: June 14, 1980
Source: Commonwealth of Independent States (former USSR) (CIS)
Launch site: PLESETSK MISSILE AND SPACE COMPLEX (PKMTR)
Decay date: 1980-07-17

Note: This is a ROCKET BODY
Your satellite tracking list
Your tracking list is empty




NASA's NSSDC Master Catalog

Two Line Element Set (TLE):
1 11845U 80050  C 80198.83909086  .06214332 +02389-5 +03978-4 0  9990
2 11845 062.7811 043.8573 0043560 131.6099 228.5873 16.34339714005059
Source of the keplerian elements: AFSPC